Weather in Nedokura

Russia / Krasnoyarsk Krai     58°34′36″N   100°37′10″E
temp.,
°C
wind,
m/s
gust,
m/s
humid.,
%
clouds,
%
prec.,
mm/h
press.,
hPa
HPBL,
m
17 may, tue
tue1701:00+11w39948 0.8 1006389
04:00+10w389222 0.0 1007291
07:00+13wnw387228 0.0 1008526
10:00+17wnw5753100 0.0 10071090
13:00+21wnw573018 0.0 10072176
16:00+22wnw583060 0.0 10072535
19:00+19wnw3843100 0.0 1007397
22:00+13sw1188100 1.1 100931
18 may, wed
wed1801:00+11ssw229167 1.1 100825
04:00+10sw2292100 0.0 100834
07:00+15ssw247266 0.0 1008247
10:00+23sw58425 0.0 10061093
13:00+26sw61032100 0.0 10043309
16:00+26wsw6133367 0.1 10022909
19:00+15w5147599 3.9 10061063
22:00+12sw310880 0.0 1008276
19 may, thu
thu1901:00+11wsw310910 0.1 1009258
04:00+9w26850 0.0 1010164
07:00+13wnw37660 0.0 1011672
10:00+18w57450 0.0 10111476
13:00+20wnw57350 0.0 10101891
16:00+21wnw463211 0.0 10091903
19:00+19wnw24445 0.0 1009127
22:00+13wsw11566 0.0 100810
20 may, fri
fri2001:00+11ne1165100 0.0 100910
04:00+9ene117595 0.0 100911
07:00+14e235799 0.0 1008251
10:00+19ssw2444100 0.0 1007816
13:00+14sw258199 0.7 1008340
16:00+19wnw595963 0.8 10071509
19:00+18w374636 0.9 1008348
22:00+12w28655 0.0 1011174
21 may, sat
sat2101:00+10wsw3107799 0.1 1012386
04:00+10sw238098 0.3 101266
07:00+13sw41065100 0.3 1011505
10:00+17wsw51144100 0.0 10102036
13:00+18w51042100 0.0 10092816
16:00+17w51044100 0.0 10092158
19:00+14wnw495775 0.0 10091258
22:00+10w257692 0.0 1011137